User: anonymous   Login
Location: Unspecified
(0.0000°N, 0.0000°E)
Time: 13:40:15
(UTC+01:00)
Language:

Cosmos 2279 Rocket - Orbit

View from above orbital plane
View from above orbital plane
View from above satellite
View from above satellite

Ground track
Ground track

The orbit data is extracted from the following two-line orbital elements,

1 23093U 94024B   16343.87494573  .00000022  00000-0  71439-5 0  9993
2 23093  82.9483 256.0223 0010059 169.9438 190.1922 13.77706598605220
Epoch (UTC): 08 December 2016 20:59:55
Eccentricity: 0.0010059
inclination: 82.9483°
perigee height: 964 km
apogee height: 979 km
right ascension of ascending node: 256.0223°
argument of perigee: 169.9438°
revolutions per day: 13.77706598
mean anomaly at epoch: 190.1922°
orbit number at epoch: 60522

The dashed part of the orbit path shows where the satellite is in the earth's shadow,  

DLR